Richmond, VA

12:43 AM EST on December 10, 2019 (GMT -0500)
Richmond International

Weather History for KRIC - October, 2019

Change the Weather History Date:

Saturday, October 12, 2019

  Actual Average Record
Temperature  
Mean Temperature 64 °F 61 °F  
Max Temperature 80 °F 72 °F 87 °F (1954)
Min Temperature 47 °F 50 °F 29 °F (1964)
Degree Days  
Heating Degree Days 2 6  
Month to date heating degree days 11 51  
Since 1 July heating degree days 11 80  
Cooling Degree Days 0 1  
Month to date cooling degree days 70 25  
Year to date cooling degree days 2040 1529  
Growing Degree Days 14 (Base 50)    
Moisture  
Dew Point 49 °F    
Average Humidity 62    
Maximum Humidity 93    
Minimum Humidity 32    
Precipitation  
Precipitation 0.00 in 0.09 in 1.27 in (1911)
Month to date precipitation 0.38 1.17  
Year to date precipitation 33.53 35.29  
Snow  
Snow 0.00 in 0.00 in 0.00 in (2002)
Month to date snowfall 0.0 0.0  
Since 1 July snowfall 0.0 0.0  
Snow Depth 0.00 in    
Sea Level Pressure  
Sea Level Pressure 30.01 in    
Wind  
Wind Speed 3 mph ()    
Max Wind Speed 9 mph    
Max Gust Speed 13 mph    
Visibility 10.0 miles    
Events      
T = Trace of Precipitation, MM = Missing Value Source: Averaged Metar Reports

Daily Weather History Graph

Daily Weather History Graph

Search for Another Location

Airport or City:

Astronomy

Oct. 12, 2019 Rise Set
Actual Time 7:14 AM EDT 6:36 PM EDT
Civil Twilight 6:48 AM EDT 7:02 PM EDT
Nautical Twilight 6:17 AM EDT 7:33 PM EDT
Astronomical Twilight 5:47 AM EDT 8:03 PM EDT
Moon 6:29 PM EDT (10/12) 5:52 AM EDT (10/12)
Length of Visible Light 12h 14m
Length of Day
11h 22m
Waxing Gibbous, 99% of the Moon is Illuminated
Oct 12
Waxing Gibbous
Oct 13
Full
Oct 21
Last Quarter
Oct 27
New
Nov 4
First Quarter

Hourly Weather History & Observations

Time (EDT) Temp. Dew Point Humidity Pressure Visibility Wind Dir Wind Speed Gust Speed Precip Events Conditions
12:54 AM 51.1 °F 45.0 °F 80% 30.06 in 10.0 mi Calm Calm - N/A   Partly Cloudy
1:54 AM 51.1 °F 46.0 °F 83% 30.05 in 10.0 mi Calm Calm - N/A   Clear
2:54 AM 48.9 °F 46.0 °F 90% 30.04 in 10.0 mi Calm Calm - N/A   Clear
3:54 AM 48.0 °F 44.1 °F 86% 30.02 in 10.0 mi Calm Calm - N/A   Partly Cloudy
4:54 AM 48.0 °F 45.0 °F 89% 30.02 in 10.0 mi Calm Calm - N/A   Scattered Clouds
5:54 AM 48.0 °F 45.0 °F 89% 30.02 in 10.0 mi Calm Calm - N/A   Scattered Clouds
6:54 AM 48.0 °F 44.1 °F 86% 30.03 in 10.0 mi Calm Calm - N/A   Scattered Clouds
7:54 AM 51.1 °F 48.0 °F 89% 30.03 in 10.0 mi ESE 3.5 mph - N/A   Mostly Cloudy
8:54 AM 57.9 °F 52.0 °F 81% 30.04 in 10.0 mi Calm Calm - N/A   Mostly Cloudy
9:54 AM 63.0 °F 51.1 °F 65% 30.03 in 10.0 mi SW 5.8 mph - N/A   Mostly Cloudy
10:54 AM 68.0 °F 48.9 °F 50% 30.02 in 10.0 mi SW 4.6 mph - N/A   Mostly Cloudy
11:54 AM 73.9 °F 44.1 °F 34% 30.01 in 10.0 mi SSW 8.1 mph - N/A   Mostly Cloudy
12:54 PM 75.9 °F 44.1 °F 32% 30.00 in 10.0 mi Variable 4.6 mph - N/A   Mostly Cloudy
1:54 PM 77.0 °F 46.9 °F 34% 29.98 in 10.0 mi Variable 5.8 mph - N/A   Mostly Cloudy
2:54 PM 80.1 °F 50.0 °F 35% 29.96 in 10.0 mi SW 8.1 mph - N/A   Mostly Cloudy
3:54 PM 78.1 °F 52.0 °F 40% 29.96 in 10.0 mi WSW 6.9 mph - N/A   Mostly Cloudy
4:54 PM 79.0 °F 52.0 °F 39% 29.96 in 10.0 mi NNW 3.5 mph - N/A   Mostly Cloudy
5:54 PM 77.0 °F 53.1 °F 43% 29.98 in 10.0 mi NNW 6.9 mph - N/A   Mostly Cloudy
6:54 PM 73.9 °F 54.0 °F 50% 29.99 in 10.0 mi NNE 4.6 mph - N/A   Mostly Cloudy
7:54 PM 72.0 °F 54.0 °F 53% 30.01 in 10.0 mi NNE 8.1 mph - N/A   Mostly Cloudy
8:54 PM 69.1 °F 54.0 °F 58% 30.02 in 10.0 mi NE 6.9 mph - N/A   Mostly Cloudy
9:54 PM 66.9 °F 54.0 °F 63% 30.04 in 10.0 mi NE 5.8 mph - N/A   Mostly Cloudy
10:54 PM 66.0 °F 53.1 °F 63% 30.04 in 10.0 mi NE 8.1 mph - N/A   Mostly Cloudy
11:54 PM 64.0 °F 53.1 °F 67% 30.04 in 10.0 mi NE 6.9 mph - N/A   Mostly Cloudy